Weather History for Cleveland, OH

Change the Weather History Date:

Monday, February 18, 2013

  Actual Average Record
Temperature  
Mean Temperature 28 °F 31 °F  
Max Temperature 48 °F 38 °F 62 °F (1981)
Min Temperature 7 °F 24 °F -5 °F (1936)
Degree Days  
Heating Degree Days 37 34  
Month to date heating degree days 684 636  
Since 1 July heating degree days 3830 3888  
Cooling Degree Days 0 0  
Month to date cooling degree days 0 0  
Year to date cooling degree days 0 0  
Moisture  
Dew Point 16 °F    
Average Humidity 64    
Maximum Humidity 80    
Minimum Humidity 48    
Precipitation  
Precipitation 0.00 in 0.09 in 0.50 in (1971)
Month to date precipitation 0.98 1.47  
Year to date precipitation 3.15 4.19  
Snow  
Snow 0.00 in 0.50 in - ()
Month to date snowfall 14.4 9.7  
Since 1 July snowfall 35.3 47.0  
Snow Depth 2.00 in    
Sea Level Pressure  
Sea Level Pressure 30.09 in    
Wind  
Wind Speed 15 mph (SSE)    
Max Wind Speed 23 mph    
Max Gust Speed 30 mph    
Visibility 10 miles    
Events      
T = Trace of Precipitation, MM = Missing Value Source: NWS Daily Summary

Daily Weather History Graph

Daily Weather History Graph

Search for Another Location

Airport:

Trip Planner

Search our weather history database for the weather conditions in past years. The results will help you decide how hot, cold, wet, or windy it might be!

Date:

Astronomy

Feb. 18, 2013 Rise Set
Actual Time 7:17 AM EST 6:05 PM EST
Civil Twilight 6:49 AM EST 6:33 PM EST
Nautical Twilight 6:17 AM EST 7:05 PM EST
Astronomical Twilight 5:45 AM EST 7:37 PM EST
Moon 11:48 AM EST (2/18) 1:58 AM EST (2/18)
Length of Visible Light 11h 43m
Length of Day
10h 47m
First Quarter, 58% of the Moon is Illuminated
Feb 18
First Quarter
Feb 25
Full
Mar 4
Last Quarter
Mar 11
New
Mar 19
First Quarter

Hourly Weather History & Observations

Time (EST) Temp. Windchill Dew Point Humidity Pressure Visibility Wind Dir Wind Speed Gust Speed Precip Events Conditions
12:51 AM 10.0 °F -1.9 °F 3.0 °F 73% 30.30 in 10.0 mi South 8.1 mph - N/A   Partly Cloudy
1:51 AM 9.0 °F -3.2 °F 3.0 °F 77% 30.31 in 10.0 mi South 8.1 mph - N/A   Scattered Clouds
2:51 AM 10.9 °F -1.8 °F 3.9 °F 73% 30.30 in 10.0 mi SSE 9.2 mph - N/A   Scattered Clouds
3:51 AM 10.9 °F -0.8 °F 5.0 °F 77% 30.28 in 10.0 mi SSE 8.1 mph - N/A   Scattered Clouds
4:51 AM 10.9 °F -1.8 °F 5.0 °F 77% 30.28 in 10.0 mi SSE 9.2 mph - N/A   Mostly Cloudy
5:51 AM 12.0 °F -0.4 °F 5.0 °F 73% 30.27 in 10.0 mi SSE 9.2 mph - N/A   Mostly Cloudy
6:51 AM 12.9 °F -0.2 °F 6.1 °F 74% 30.26 in 10.0 mi SSE 10.4 mph - N/A   Mostly Cloudy
7:51 AM 15.1 °F 1.1 °F 6.1 °F 68% 30.24 in 10.0 mi SSE 12.7 mph - N/A   Mostly Cloudy
8:51 AM 21.0 °F 7.6 °F 9.0 °F 60% 30.23 in 10.0 mi South 15.0 mph - N/A   Overcast
9:51 AM 23.0 °F 9.6 °F 10.0 °F 58% 30.20 in 10.0 mi SSE 16.1 mph - N/A   Overcast
10:51 AM 26.6 °F 14.3 °F 12.2 °F 55% 30.12 in 10.0 mi SSE 16.1 mph - N/A   Mostly Cloudy
11:51 AM 30.0 °F 17.2 °F 14.0 °F 51% 30.12 in 10.0 mi SSE 20.7 mph - N/A   Mostly Cloudy
12:51 PM 34.0 °F 23.0 °F 17.1 °F 50% 30.06 in 10.0 mi SSE 18.4 mph 24.2 mph N/A   Overcast
1:51 PM 37.0 °F 27.4 °F 19.0 °F 48% 30.03 in 10.0 mi South 17.3 mph 27.6 mph N/A   Overcast
2:51 PM 39.0 °F 30.3 °F 21.9 °F 50% 30.00 in 10.0 mi South 16.1 mph 25.3 mph N/A   Overcast
3:51 PM 41.0 °F 32.5 °F 25.0 °F 53% 29.98 in 10.0 mi South 17.3 mph - N/A   Overcast
4:51 PM 42.1 °F 33.9 °F 26.1 °F 53% 29.96 in 10.0 mi South 17.3 mph 26.5 mph N/A   Overcast
5:51 PM 42.1 °F 34.5 °F 27.0 °F 55% 29.93 in 10.0 mi South 15.0 mph 25.3 mph N/A   Overcast
6:51 PM 42.1 °F 33.1 °F 27.0 °F 55% 29.91 in 10.0 mi South 20.7 mph 25.3 mph N/A   Mostly Cloudy
7:51 PM 42.1 °F 34.5 °F 28.0 °F 58% 29.91 in 10.0 mi South 15.0 mph - N/A   Overcast
8:51 PM 44.1 °F 36.2 °F 28.9 °F 55% 29.86 in 10.0 mi South 18.4 mph 25.3 mph N/A   Overcast
9:51 PM 45.0 °F 37.6 °F 30.0 °F 56% 29.83 in 10.0 mi South 17.3 mph 27.6 mph N/A   Overcast
10:51 PM 46.0 °F 38.5 °F 30.0 °F 54% 29.78 in 10.0 mi South 19.6 mph 26.5 mph N/A   Overcast
11:51 PM 46.9 °F - 30.0 °F 52% 29.75 in 10.0 mi South 17.3 mph 25.3 mph N/A   Overcast